Flag Weather past 2 weeks in Lexington, North Carolina, U.S.A.

Now
64 °F

Mostly cloudy.


Feels Like: 64 °F
Forecast: 56 / 69 °F
Wind: 5 mph from Southwest

Location: Davidson County Airport

Current Time: Nov 24, 2014 at 10:30:00 AM

Latest Report: Nov 24, 2014 at 9:55 AM


Visibility: 10 mi

Pressure: 29.80 "Hg

Humidity: 79%

Dew point: 57 °F

Location of LexingtonLocation

Historic Weather in Lexington — Graph

°F

Lexington temperature yesterday

Maximum temperature yesterday: 63 °F (at 10:55 PM)
Minimum temperature yesterday: 37 °F (at 12:15 AM)
Average temperature yesterday: 48 °F

Past Weeks' High & Low Weather Summary

 TemperatureHumidityPressure
High73 °F (Nov 12, 1:55 PM)99% (Nov 17, 8:35 AM)30.57 "Hg (Nov 17, 8:35 AM)
Low15 °F (Nov 19, 6:55 AM)18% (Nov 21, 2:15 PM)29.61 "Hg (Nov 17, 1:15 PM)
Average43 °F63%30.13 "Hg
* Reported Nov 9 9:15 AM — Nov 24 9:15 AM, Lexington, Weather by CustomWeather, © 2014

Note: Actual official high and low records may vary slightly from our data, if they occured in-between our weather recording intervals... More about our weather records

Advertising

Lexington weather history for previous 24 hours

 ConditionsComfort  
Time TempWeatherWind HumidityBarometerVisibility
9:15 AM
Nov 24
63 °FPartly sunny.10 mph79%29.79 "Hg10 mi
8:55 AM62 °FScattered clouds.8 mph81%29.79 "Hg10 mi
8:35 AM61 °FBroken clouds.9 mph84%29.79 "Hg10 mi
8:15 AM60 °FMore clouds than sun.5 mph85%29.79 "Hg10 mi
7:55 AM59 °FMore clouds than sun.5 mph84%29.79 "Hg10 mi
7:15 AM58 °FScattered clouds.6 mph87%29.77 "Hg10 mi
6:55 AM58 °FClear.5 mph88%29.76 "Hg10 mi
6:15 AM60 °FPassing clouds.9 mph84%29.76 "Hg10 mi
5:55 AM60 °FPassing clouds.7 mph84%29.75 "Hg10 mi
5:15 AM60 °FMostly cloudy.9 mph84%29.75 "Hg10 mi
4:55 AM60 °FOvercast.7 mph84%29.75 "Hg10 mi
4:15 AM60 °FMostly cloudy.6 mph85%29.75 "Hg10 mi
3:55 AM60 °FMostly cloudy.5 mph85%29.74 "Hg10 mi
3:15 AM60 °FPartly cloudy.6 mph85%29.74 "Hg10 mi
2:55 AM60 °FPassing clouds.5 mph85%29.74 "Hg10 mi
2:35 AM61 °FMostly cloudy.5 mph84%29.73 "Hg10 mi
2:15 AM62 °FOvercast.9 mph82%29.73 "Hg10 mi
1:55 AM62 °FMostly cloudy.8 mph84%29.73 "Hg10 mi
1:15 AM62 °FPassing clouds.5 mph88%29.70 "Hg10 mi
12:55 AM63 °FPassing clouds.6 mph87%29.69 "Hg10 mi
12:15 AM63 °FOvercast.9 mph91%29.70 "Hg10 mi
11:55 PM
Nov 23
63 °FOvercast.6 mph94%29.72 "Hg10 mi
11:15 PM63 °FPartly cloudy.7 mph95%29.71 "Hg10 mi
10:55 PM63 °FPassing clouds.5 mph95%29.72 "Hg10 mi
10:15 PM62 °FPartly cloudy.12 mph96%29.73 "Hg10 mi
9:55 PM62 °FPassing clouds.9 mph97%29.75 "Hg10 mi
9:35 PM61 °FRain. Overcast.12 mph97%29.77 "Hg3 mi
9:15 PM60 °FHeavy rain. Mostly cloudy.10 mph97%29.77 "Hg3 mi
8:55 PM60 °FRain. Mostly cloudy.9 mph97%29.76 "Hg7 mi
8:35 PM59 °FLight rain. Low clouds.7 mph97%29.76 "Hg10 mi
8:15 PM59 °FRain. Low clouds.10 mph97%29.79 "Hg7 mi
7:55 PM58 °FRain. Low clouds.9 mph97%29.80 "Hg4 mi
7:35 PM58 °FRain. Mostly cloudy.7 mph97%29.81 "Hg7 mi
7:15 PM58 °FHeavy rain. Low clouds.12 mph97%29.83 "Hg3 mi
6:55 PM57 °FRain. Low clouds.7 mph97%29.84 "Hg5 mi
6:15 PM56 °FRain. Low clouds.8 mph97%29.86 "Hg4 mi
5:55 PM55 °FDrizzle. Low clouds.7 mph97%29.87 "Hg5 mi
5:35 PM55 °FLight rain. Low clouds.8 mph97%29.89 "Hg7 mi
5:15 PM54 °FRain. Low clouds.7 mph97%29.89 "Hg7 mi
4:55 PM53 °FHeavy rain. Mostly cloudy.6 mph97%29.91 "Hg5 mi
4:15 PM52 °FRain. Low clouds.6 mph97%29.95 "Hg4 mi
3:55 PM52 °FHeavy rain. Low clouds.3 mph96%29.96 "Hg4 mi
3:15 PM51 °FRain. Partly sunny.8 mph95%29.98 "Hg4 mi
2:55 PM50 °FScattered clouds.No wind95%30.00 "Hg4 mi
2:35 PM50 °FDrizzle. Broken clouds.No wind94%30.03 "Hg4 mi
2:15 PM49 °FDrizzle. Broken clouds.No wind93%30.03 "Hg5 mi
1:55 PM49 °FLight rain. Partly sunny.No wind91%30.04 "Hg5 mi
1:35 PM49 °FRain. Partly sunny.No wind89%30.06 "Hg7 mi
1:15 PM49 °FRain. Overcast.No wind85%30.07 "Hg10 mi
12:55 PM49 °FOvercast.No wind84%30.08 "Hg10 mi
12:35 PM48 °FPartly sunny.No wind87%30.09 "Hg7 mi
12:15 PM47 °FSunny.No wind87%30.11 "Hg7 mi
11:55 AM46 °FRain. Sunny.No wind88%30.13 "Hg5 mi
11:35 AM46 °FRain. Sunny.No wind85%30.14 "Hg5 mi
11:15 AM46 °FScattered clouds.No wind80%30.17 "Hg7 mi
10:55 AM47 °FRain. More clouds than sun.No wind69%30.18 "Hg10 mi
10:35 AM46 °FOvercast.No wind67%30.19 "Hg10 mi
10:15 AM45 °FPartly sunny.No wind67%30.19 "Hg10 mi
Weather by CustomWeather, © 2014

See weather overviewHow to use our weather pages